JCSAT-16

Last updated on Sat Jun 14 2025 00:02:46 GMT+0000 (Coordinated Universal Time)

1 41729U 16050A 25164.22128056 -.00000236 00000+0 00000+0 0 9999 2 41729 0.0177 358.8244 0002297 97.7210 28.8388 1.00270619 32378
UTC large
Height (km)
Speed (km/s)
/
Latitude / Longitude
Inclination (degrees)
Orbital Period (minutes)
Azimuth
Elevation
Range (km)
Doppler Factor

Next 0 passes for location: London (51.5072 / 0.1276)

Sorry there are no passes over London.